Change the Weather History Date:

Friday, May 30, 2014

  Actual Average Record
Temperature  
Mean Temperature 62 °F -  
Max Temperature 79 °F 63 °F 91 °F (2007)
Min Temperature 46 °F 44 °F 35 °F (2001)
Degree Days  
Heating Degree Days 2    
Growing Degree Days 12 (Base 50)    
Moisture  
Dew Point 48 °F    
Average Humidity 64    
Maximum Humidity 90    
Minimum Humidity 32    
Precipitation  
Precipitation 0.00 in - - ()
Sea Level Pressure  
Sea Level Pressure 30.19 in    
Wind  
Wind Speed 3 mph (East)    
Max Wind Speed 13 mph    
Max Gust Speed 16 mph    
Visibility 10 miles    
Events      
Averages and records for this station are not official NWS values.
T = Trace of Precipitation, MM = Missing Value Source: NWS Daily Summary

Daily Weather History Graph

Daily Weather History Graph

Search for Another Location

Airport or City:

Trip Planner

Search our weather history database for the weather conditions in past years. The results will help you decide how hot, cold, wet, or windy it might be!

Date:

Astronomy

May. 30, 2014 Rise Set
Actual Time 5:53 AM EDT 9:09 PM EDT
Civil Twilight 5:17 AM EDT 9:45 PM EDT
Nautical Twilight 4:31 AM EDT 10:31 PM EDT
Astronomical Twilight 3:34 AM EDT 11:28 PM EDT
Moon 7:38 AM EDT (5/30) 10:42 PM EDT (5/30)
Length of Visible Light 16h 27m
Length of Day
15h 16m
Waxing Crescent, 4% of the Moon is Illuminated
May 30
Waxing Crescent
Jun 5
First Quarter
Jun 13
Full
Jun 19
Last Quarter
Jun 27
New

Hourly Weather History & Observations

Time (EDT) Temp. Dew Point Humidity Pressure Visibility Wind Dir Wind Speed Gust Speed Precip Events Conditions
12:14 AM 52.2 °F 48.0 °F 86% 30.17 in 10.0 mi Calm Calm - N/A   Clear
12:34 AM 51.4 °F 46.2 °F 82% 30.18 in 10.0 mi Calm Calm - N/A   Clear
12:53 AM 50.9 °F 46.6 °F 85% 30.17 in 10.0 mi Calm Calm - N/A   Clear
1:14 AM 50.2 °F 45.3 °F 83% 30.17 in 10.0 mi Calm Calm - N/A   Clear
1:33 AM 50.0 °F 46.6 °F 88% 30.17 in 10.0 mi Calm Calm - N/A   Clear
1:53 AM 49.6 °F 46.4 °F 89% 30.16 in 10.0 mi Calm Calm - N/A   Clear
2:14 AM 48.4 °F 45.0 °F 88% 30.16 in 10.0 mi West 3.5 mph - N/A   Clear
2:33 AM 48.6 °F 45.9 °F 90% 30.16 in 10.0 mi SW 3.5 mph - N/A   Clear
2:53 AM 47.8 °F 44.8 °F 89% 30.16 in 10.0 mi Calm Calm - N/A   Clear
3:14 AM 47.7 °F 44.4 °F 89% 30.16 in 10.0 mi WSW 3.5 mph - N/A   Clear
3:33 AM 47.3 °F 43.7 °F 87% 30.16 in 10.0 mi West 3.5 mph - N/A   Clear
3:53 AM 47.7 °F 44.8 °F 90% 30.15 in 10.0 mi Calm Calm - N/A   Clear
4:14 AM 47.1 °F 42.8 °F 85% 30.16 in 10.0 mi Calm Calm - N/A   Clear
4:33 AM 49.6 °F 46.4 °F 89% 30.16 in 10.0 mi Calm Calm - N/A   Clear
4:53 AM 48.4 °F 44.2 °F 86% 30.16 in 10.0 mi Calm Calm - N/A   Clear
5:14 AM 46.8 °F 43.7 °F 89% 30.16 in 10.0 mi WNW 3.5 mph - N/A   Clear
5:33 AM 47.5 °F 44.4 °F 89% 30.17 in 10.0 mi Calm Calm - N/A   Clear
5:53 AM 49.6 °F 46.0 °F 87% 30.18 in 10.0 mi Calm Calm - N/A   Clear
6:14 AM 47.7 °F 42.1 °F 81% 30.18 in 10.0 mi Calm Calm - N/A   Clear
6:33 AM 51.4 °F 46.4 °F 83% 30.18 in 10.0 mi Calm Calm - N/A   Clear
6:54 AM 51.8 °F 48.0 °F 87% 30.19 in 10.0 mi SW 4.6 mph - N/A   Clear
7:14 AM 54.5 °F 49.3 °F 83% 30.19 in 10.0 mi Calm Calm - N/A   Clear
7:33 AM 56.3 °F 48.9 °F 76% 30.20 in 10.0 mi Calm Calm - N/A   Clear
7:54 AM 58.1 °F 49.6 °F 73% 30.20 in 10.0 mi Calm Calm - N/A   Clear
8:13 AM 60.4 °F 47.7 °F 63% 30.20 in 10.0 mi Calm Calm - N/A   Clear
8:33 AM 62.8 °F 47.8 °F 58% 30.20 in 10.0 mi Calm Calm - N/A   Clear
8:54 AM 64.6 °F 48.0 °F 55% 30.20 in 10.0 mi Calm Calm - N/A   Clear
9:14 AM 67.1 °F 47.5 °F 49% 30.20 in 10.0 mi Calm Calm - N/A   Clear
9:33 AM 70.2 °F 45.1 °F 41% 30.20 in 10.0 mi SSE 3.5 mph - N/A   Clear
9:54 AM 74.3 °F 42.4 °F 32% 30.20 in 10.0 mi WSW 6.9 mph - N/A   Clear
10:14 AM 75.0 °F 45.1 °F 34% 30.20 in 10.0 mi SW 6.9 mph - N/A   Scattered Clouds
10:33 AM 76.6 °F 45.1 °F 33% 30.19 in 10.0 mi SW 6.9 mph - N/A   Mostly Cloudy
10:54 AM 77.2 °F 45.7 °F 33% 30.20 in 10.0 mi WSW 6.9 mph - N/A   Mostly Cloudy
11:13 AM 77.5 °F 46.2 °F 33% 30.19 in 10.0 mi Calm Calm - N/A   Mostly Cloudy
11:33 AM 78.4 °F 48.7 °F 35% 30.19 in 10.0 mi Calm Calm - N/A   Scattered Clouds
11:54 AM 77.7 °F 48.2 °F 35% 30.19 in 10.0 mi ENE 6.9 mph - N/A   Scattered Clouds
12:13 PM 79.0 °F 47.7 °F 33% 30.18 in 10.0 mi East 10.4 mph - N/A   Clear
12:34 PM 78.6 °F 47.3 °F 33% 30.18 in 10.0 mi ESE 9.2 mph - N/A   Clear
12:53 PM 79.2 °F 47.8 °F 33% 30.18 in 10.0 mi ENE 11.5 mph - N/A   Clear
1:14 PM 76.6 °F 48.0 °F 36% 30.19 in 10.0 mi ENE 12.7 mph - N/A   Clear
1:33 PM 73.2 °F 50.5 °F 45% 30.20 in 10.0 mi ENE 11.5 mph - N/A   Clear
1:53 PM 72.0 °F 47.7 °F 42% 30.20 in 10.0 mi East 10.4 mph - N/A   Clear
2:14 PM 73.2 °F 46.8 °F 39% 30.20 in 10.0 mi East 9.2 mph - N/A   Clear
2:33 PM 73.8 °F 47.1 °F 39% 30.20 in 10.0 mi East 9.2 mph - N/A   Clear
2:53 PM 73.4 °F 46.6 °F 38% 30.20 in 10.0 mi East 9.2 mph - N/A   Clear
3:14 PM 72.7 °F 46.9 °F 40% 30.20 in 10.0 mi East 11.5 mph 16.1 mph N/A   Clear
3:33 PM 71.8 °F 46.6 °F 41% 30.20 in 10.0 mi East 11.5 mph - N/A   Clear
3:53 PM 69.8 °F 48.6 °F 47% 30.20 in 10.0 mi ENE 10.4 mph - N/A   Clear
4:14 PM 69.3 °F 49.6 °F 50% 30.20 in 10.0 mi East 8.1 mph - N/A   Clear
4:33 PM 69.3 °F 49.6 °F 50% 30.20 in 10.0 mi East 6.9 mph - N/A   Clear
4:53 PM 68.9 °F 49.3 °F 50% 30.20 in 10.0 mi East 8.1 mph - N/A   Clear
5:13 PM 68.5 °F 49.5 °F 50% 30.19 in 10.0 mi East 6.9 mph - N/A   Clear
5:33 PM 68.5 °F 49.6 °F 51% 30.20 in 10.0 mi ENE 8.1 mph - N/A   Clear
5:54 PM 66.4 °F 49.8 °F 55% 30.20 in 10.0 mi ENE 5.8 mph - N/A   Clear
6:13 PM 64.0 °F 50.2 °F 61% 30.20 in 10.0 mi ENE 8.1 mph - N/A   Clear
6:33 PM 63.7 °F 49.6 °F 60% 30.20 in 10.0 mi ENE 6.9 mph - N/A   Clear
6:54 PM 63.7 °F 49.6 °F 60% 30.19 in 10.0 mi ENE 3.5 mph - N/A   Clear
7:13 PM 63.5 °F 49.8 °F 61% 30.19 in 10.0 mi ENE 5.8 mph - N/A   Clear
7:33 PM 63.5 °F 50.0 °F 61% 30.19 in 10.0 mi ENE 3.5 mph - N/A   Clear
7:54 PM 63.1 °F 50.2 °F 63% 30.19 in 10.0 mi ENE 4.6 mph - N/A   Clear
8:13 PM 62.6 °F 50.4 °F 64% 30.19 in 10.0 mi ENE 3.5 mph - N/A   Clear
8:34 PM 61.7 °F 50.5 °F 67% 30.20 in 10.0 mi NE 3.5 mph - N/A   Clear
8:54 PM 61.7 °F 50.9 °F 68% 30.20 in 10.0 mi Calm Calm - N/A   Clear
9:13 PM 61.2 °F 51.8 °F 71% 30.19 in 10.0 mi ENE 3.5 mph - N/A   Clear
9:34 PM 59.9 °F 52.0 °F 75% 30.20 in 10.0 mi NE 3.5 mph - N/A   Clear
9:54 PM 59.0 °F 52.3 °F 79% 30.20 in 10.0 mi Calm Calm - N/A   Clear
10:13 PM 57.4 °F 51.8 °F 82% 30.20 in 10.0 mi Calm Calm - N/A   Clear
10:34 PM 57.4 °F 50.9 °F 79% 30.21 in 10.0 mi Calm Calm - N/A   Clear
10:53 PM 56.3 °F 50.7 °F 82% 30.21 in 10.0 mi Calm Calm - N/A   Clear
11:13 PM 55.0 °F 48.9 °F 80% 30.21 in 10.0 mi Calm Calm - N/A   Clear
11:34 PM 53.2 °F 48.0 °F 82% 30.22 in 10.0 mi Calm Calm - N/A   Clear
11:53 PM 53.1 °F 48.0 °F 83% 30.23 in 10.0 mi Calm Calm - N/A   Clear